Location: Boiro
(42.6475°N, 8.8834°W)
Time: 03:53:53
(UTC+01:00)

Vanguard 3 - Pass Details

Date: 04 December 2021
Orbit: 508 x 3260 km, 33.3° (Epoch: 19 January)

Event Time Altitude Azimuth Distance (km) Brightness Sun altitude
Exits shadow 05:22:12 33° 215° (SW) 4,539 10.5 -37.3°
Maximum altitude 05:31:54 53° 162° (SSE) 3,620 10.3 -35.5°
Drops below altitude 10° 05:47:25 10° 92° (E) 5,122 12.1 -32.7°
Sets 05:50:53 0° 88° (E) 5,823 12.6 -32.0°
